{"data":{"norad_id":54141,"epoch":"2026-05-25T01:47:59.949888Z","epoch_age_seconds":65409,"freshness":"FRESH","line1":"1 54141U 22138AE  26145.07499942  .00000028  00000+0  37071-4 0  9994","line2":"2 54141  87.9177 279.0482 0002464 114.8682 245.2708 13.20772367176251","mean_motion":13.20772367,"eccentricity":0.0002464,"inclination_deg":87.9177,"raan_deg":279.0482,"arg_perigee_deg":114.8682,"mean_anomaly_deg":245.2708,"bstar":3.7071e-5,"rev_number":17625,"period_min":109.02711443538,"perigee_km":1179.9084970724,"apogee_km":1183.6340198622,"semimajor_km":7559.9082584673,"source":"CELESTRAK","updated_at":"2026-05-25T13:38:22.590731Z"}}